TimeCST,TemperatureF,Dew PointF,Humidity,Sea Level PressureIn,VisibilityMPH,Wind Direction,Wind SpeedMPH,Gust SpeedMPH,PrecipitationIn,Events,Conditions,WindDirDegrees,DateUTC
12:53 AM,32.0,28.9,88,30.16,10.0,SSE,5.8,-,N/A,,Clear,160,2012-11-08 06:53:00
1:53 AM,33.1,30.0,89,30.16,10.0,South,6.9,-,N/A,,Clear,170,2012-11-08 07:53:00
2:53 AM,32.0,28.9,88,30.15,10.0,South,6.9,-,N/A,,Clear,180,2012-11-08 08:53:00
3:53 AM,32.0,28.9,88,30.14,10.0,SSE,6.9,-,N/A,,Clear,160,2012-11-08 09:53:00
4:53 AM,33.1,30.0,89,30.14,10.0,South,9.2,-,N/A,,Clear,170,2012-11-08 10:53:00
5:53 AM,34.0,30.0,85,30.13,10.0,South,9.2,-,N/A,,Clear,170,2012-11-08 11:53:00
6:53 AM,33.1,28.9,85,30.13,10.0,South,10.4,-,N/A,,Clear,170,2012-11-08 12:53:00
7:53 AM,35.1,30.9,85,30.14,10.0,South,10.4,-,N/A,,Clear,170,2012-11-08 13:53:00
8:53 AM,39.9,33.1,77,30.13,10.0,South,12.7,-,N/A,,Clear,170,2012-11-08 14:53:00
9:53 AM,46.0,35.1,66,30.12,10.0,South,16.1,-,N/A,,Clear,170,2012-11-08 15:53:00
10:53 AM,50.0,36.0,59,30.11,10.0,South,12.7,-,0.00,Rain,Light Rain,170,2012-11-08 16:53:00
11:53 AM,52.0,37.0,57,30.07,10.0,South,15.0,-,0.00,,Clear,180,2012-11-08 17:53:00
12:53 PM,55.0,36.0,49,30.03,10.0,South,15.0,-,N/A,,Clear,170,2012-11-08 18:53:00
1:53 PM,55.9,37.0,49,30.01,10.0,SSE,15.0,-,N/A,,Clear,160,2012-11-08 19:53:00
2:53 PM,57.0,37.0,47,29.99,10.0,SSE,16.1,23.0,N/A,,Clear,160,2012-11-08 20:53:00
3:53 PM,55.9,37.0,49,29.98,10.0,SE,13.8,-,N/A,,Clear,140,2012-11-08 21:53:00
4:53 PM,53.1,36.0,52,29.97,10.0,SSE,12.7,-,N/A,,Clear,150,2012-11-08 22:53:00
5:53 PM,50.0,37.0,61,29.97,10.0,SSE,10.4,-,N/A,,Clear,150,2012-11-08 23:53:00
6:53 PM,48.9,37.0,64,29.98,10.0,SSE,12.7,-,N/A,,Clear,160,2012-11-09 00:53:00
7:53 PM,46.9,37.0,68,29.99,10.0,South,8.1,-,N/A,,Clear,170,2012-11-09 01:53:00
8:53 PM,46.0,37.0,71,30.00,10.0,South,6.9,-,N/A,,Clear,170,2012-11-09 02:53:00
9:53 PM,45.0,37.0,74,29.99,10.0,SSE,6.9,-,N/A,,Clear,150,2012-11-09 03:53:00
10:53 PM,44.1,37.0,76,29.97,10.0,SSE,8.1,-,N/A,,Clear,150,2012-11-09 04:53:00
11:53 PM,44.1,37.0,76,29.97,10.0,SSE,8.1,-,N/A,,Clear,150,2012-11-09 05:53:00